MST,Max TemperatureF,Mean TemperatureF,Min TemperatureF,Max Dew PointF,MeanDew PointF,Min DewpointF,Max Humidity, Mean Humidity, Min Humidity, Max Sea Level PressureIn, Mean Sea Level PressureIn, Min Sea Level PressureIn, Max VisibilityMiles, Mean VisibilityMiles, Min VisibilityMiles, Max Wind SpeedMPH, Mean Wind SpeedMPH, Max Gust SpeedMPH,PrecipitationIn, CloudCover, Events, WindDirDegrees
2013-12-1,48,42,36,37,32,27,82,66,49,30.14,29.89,29.69,10,10,10,24,6,33,T,7,Rain,240
2013-12-2,42,27,11,36,24,1,92,77,61,30.14,29.70,29.52,10,7,1,23,8,29,0.16,7,Rain-Snow,325
2013-12-3,11,7,2,0,-2,-6,76,70,63,30.48,30.31,30.03,10,8,2,21,12,28,T,8,Snow,323
2013-12-4,7,0,-7,0,-6,-13,79,70,60,30.51,30.45,30.18,10,8,2,17,7,22,T,5,Snow,297
2013-12-5,6,-3,-12,-6,-12,-17,79,70,60,30.61,30.50,30.17,10,10,10,17,3,20,0.00,3,,316
2013-12-6,-3,-7,-11,-15,-19,-22,72,59,45,30.71,30.64,30.32,10,10,7,13,9,16,0.00,3,,285
2013-12-7,-4,-10,-17,-17,-21,-24,72,61,50,30.66,30.51,30.40,10,10,7,8,2,9,T,0,Snow,279
2013-12-8,3,-6,-15,-2,-11,-21,87,76,65,30.55,30.35,30.10,10,5,0,6,1,7,0.04,6,Snow,357
2013-12-9,25,7,-11,12,2,-16,83,65,47,30.53,30.40,30.16,10,10,6,22,6,29,0.00,7,,281
2013-12-10,28,23,18,15,14,11,74,62,50,30.41,30.30,30.18,10,10,9,24,8,30,0.00,7,,269
2013-12-11,35,26,17,17,15,12,80,64,47,30.48,30.43,30.39,10,10,10,17,4,23,0.00,4,,195
2013-12-12,38,30,21,21,18,16,84,66,48,30.42,30.27,30.14,10,10,10,8,3,10,0.00,6,,272
2013-12-13,43,32,21,27,24,17,81,65,49,30.33,30.20,30.08,10,10,10,21,9,26,0.00,5,,272
2013-12-14,47,41,34,28,25,23,64,55,45,30.36,30.29,30.19,10,10,10,25,11,35,0.00,6,,260
2013-12-15,54,43,32,27,23,18,56,42,28,30.23,30.16,30.06,10,10,10,26,9,38,0.00,1,,251
2013-12-16,51,45,38,25,21,18,49,40,31,30.34,30.25,30.11,10,10,10,20,8,33,0.00,1,,259
2013-12-17,52,40,27,23,21,17,75,51,27,30.35,30.13,29.90,10,10,9,20,3,24,0.00,0,,243
2013-12-18,51,33,14,25,18,6,75,51,26,30.04,29.84,29.74,10,8,1,25,10,32,0.01,4,Snow,311
2013-12-19,14,9,4,3,-1,-4,83,67,51,30.39,30.23,29.93,10,8,2,20,6,24,T,4,Snow,307
2013-12-20,20,12,4,16,8,-1,86,74,62,30.19,29.87,29.53,10,7,1,8,2,9,0.03,6,Snow,301
2013-12-21,33,26,19,23,18,16,91,73,54,30.07,29.92,29.54,10,9,2,24,6,30,T,7,Snow,278
2013-12-22,32,20,7,22,13,4,88,77,66,30.43,30.23,30.03,10,8,1,10,2,13,0.01,6,Snow,345
2013-12-23,39,26,13,34,21,11,92,76,59,30.40,30.19,29.85,10,8,5,33,4,47,0.03,6,Rain,293
2013-12-24,39,35,30,22,18,15,56,48,40,30.50,30.37,30.14,10,10,10,36,14,51,0.00,3,,275
2013-12-25,39,27,14,18,14,10,74,57,40,30.58,30.47,30.35,10,10,10,17,5,22,0.00,1,,273
2013-12-26,50,44,38,28,25,16,60,47,33,30.36,30.29,30.23,10,10,10,17,5,23,0.00,4,,124
2013-12-27,50,40,30,27,24,18,75,55,34,30.30,30.15,29.95,10,10,10,12,5,15,0.00,1,,265
2013-12-28,49,33,16,23,12,6,73,53,33,30.54,30.38,29.94,10,10,4,26,6,33,0.01,7,Snow,313
2013-12-29,38,26,13,24,17,11,88,65,41,30.51,30.31,30.16,10,10,8,29,6,37,0.00,5,,280
2013-12-30,45,38,30,29,24,23,75,58,41,30.25,30.16,30.02,10,10,10,21,7,28,0.00,4,,265
2013-12-31,47,43,38,33,29,23,70,60,49,30.16,30.03,29.97,10,10,10,25,12,35,T,8,,272